Theta_e
335 334 334 334 333 333 333 333 333 333 333 333 332 333 333 333 334 334 334 335 336 335 335 335 334 334 334 333 334 333 333 332 333 332 332 331 331 332 331 331 330 328 329 329 328 328 329 329 328 328 328 328 328 328 328 328 328 328 328 328 327 327 327
335 334 333 333 333 332 332 333 333 333 333 333 333 333 333 333 334 334 334 335 335 335 335 335 334 333 333 333 333 333 332 333 333 332 333 332 331 331 331 331 331 330 330 329 328 328 327 328 329 328 327 327 327 328 327 327 327 327 327 327 326 326 326
334 334 334 334 333 331 331 332 332 332 333 332 332 333 333 333 334 334 334 333 334 333 333 334 334 333 333 333 333 333 333 332 332 332 332 332 331 331 331 331 331 331 331 330 328 328 327 328 328 327 327 327 326 327 327 327 326 327 326 326 326 325 325
334 335 334 333 332 331 331 332 332 332 332 332 332 333 332 333 333 333 333 333 332 332 332 333 333 333 334 333 333 334 333 332 331 331 331 331 331 332 331 330 330 330 330 330 329 328 328 327 327 327 326 326 326 326 326 326 326 326 326 326 325 325 324
333 334 333 332 331 331 331 332 332 332 332 331 332 332 332 332 332 332 332 332 331 331 331 332 333 333 333 333 333 334 334 332 331 331 331 331 331 332 331 330 330 329 329 330 329 328 328 327 327 326 326 325 326 326 326 326 326 325 325 325 325 325 324
333 333 332 332 330 330 331 332 332 332 332 331 331 331 331 331 331 331 331 331 331 330 330 331 333 333 333 333 334 334 333 332 332 332 331 331 331 331 331 331 330 329 328 329 330 329 329 327 327 326 325 325 325 325 326 326 325 325 325 325 324 323 323
334 333 332 331 330 331 331 332 332 332 332 331 331 331 330 330 330 330 330 330 331 330 329 330 332 333 333 334 334 333 333 333 333 332 331 331 331 331 331 330 330 329 328 329 330 330 329 327 327 325 324 325 324 324 325 325 325 323 321 321 321 319 319
334 332 332 331 330 331 331 331 332 331 331 330 330 330 330 329 329 330 330 330 330 330 329 329 331 332 332 333 333 333 333 333 333 332 331 331 331 331 330 330 331 330 329 328 329 330 328 327 326 325 324 324 324 324 323 324 324 321 317 316 316 314 313
333 332 332 331 331 331 331 330 330 330 331 329 329 330 330 329 329 330 330 330 330 330 329 329 330 330 331 332 332 333 333 333 333 331 330 331 332 331 329 330 330 330 329 328 328 329 329 327 326 325 324 323 324 324 323 322 320 317 315 314 313 313 312
333 332 331 330 331 331 330 329 329 329 329 330 330 330 329 329 329 330 330 330 330 330 329 329 329 329 330 330 331 332 332 332 332 331 330 331 332 330 329 329 329 329 329 329 328 328 329 328 326 325 324 323 323 323 324 323 318 314 313 313 311 311 312
333 332 330 330 331 331 329 329 329 328 328 329 329 329 330 329 329 329 329 329 330 329 329 329 329 329 329 329 330 331 331 331 332 331 330 331 331 330 330 330 329 328 329 329 328 328 328 328 326 324 324 323 322 321 321 320 319 314 311 312 312 312 311
333 331 330 330 331 330 329 329 329 329 328 328 329 329 329 328 328 328 328 329 329 328 329 328 327 328 328 329 329 329 330 331 331 331 330 331 331 330 330 329 328 328 328 328 328 328 328 327 326 325 324 323 323 321 318 318 319 316 312 312 313 313 312
331 330 330 331 331 330 329 329 328 328 329 329 329 328 328 328 328 327 326 328 328 327 328 327 326 327 327 327 328 328 329 330 331 331 331 332 331 329 329 328 328 328 328 327 327 327 327 326 325 324 324 323 322 320 318 317 317 316 314 314 314 313 313
330 330 331 331 331 329 329 328 328 329 329 329 328 328 327 327 327 325 325 326 327 327 326 326 326 325 326 327 326 327 328 328 329 329 330 331 331 330 329 328 327 327 327 327 327 327 326 325 324 324 323 322 321 319 318 317 316 315 314 314 314 313 313
330 330 331 330 330 329 328 328 328 329 329 329 328 327 327 327 326 324 323 324 326 326 325 325 325 324 325 326 325 325 326 327 327 328 328 330 330 330 330 329 328 327 327 326 326 325 324 323 323 322 320 320 320 319 318 317 316 315 314 313 313 314 313
329 330 331 330 329 329 329 329 328 329 329 328 327 327 327 326 325 323 321 322 324 325 324 324 324 324 323 324 324 323 324 325 326 327 327 328 329 329 330 329 328 328 327 326 324 324 323 322 321 319 318 319 319 318 317 317 315 314 313 313 313 313 312
330 331 331 329 329 329 329 329 328 328 327 326 327 327 327 326 325 322 320 321 324 325 324 324 323 323 322 322 322 323 324 325 325 325 326 328 329 329 329 330 329 327 327 325 324 323 322 321 320 319 318 319 319 318 316 315 315 314 313 312 312 312 311
331 331 330 329 329 329 329 329 328 327 326 326 327 327 326 326 325 322 320 321 323 324 324 323 323 322 322 321 321 322 324 324 324 324 325 326 328 328 329 329 328 326 325 324 323 322 321 320 320 319 318 319 318 318 317 316 315 314 313 312 312 312 311
331 330 329 329 329 329 328 328 328 327 326 325 326 326 324 325 324 322 320 320 322 323 323 322 323 322 321 320 320 321 322 322 323 324 324 325 326 327 327 327 325 324 324 322 322 321 320 320 320 319 319 318 318 318 319 318 317 315 314 313 312 312 311
330 328 328 329 329 329 328 328 328 328 326 326 326 325 325 325 324 321 320 319 320 322 322 322 322 321 320 320 319 320 320 321 322 324 324 324 325 325 325 324 324 323 322 321 321 320 319 320 320 320 319 319 319 319 319 319 318 317 315 314 314 313 312
329 327 327 328 328 328 328 328 328 327 327 326 326 325 325 324 323 321 319 319 320 322 322 321 321 320 319 318 317 318 319 320 322 323 323 323 324 324 324 323 322 322 321 321 321 320 320 320 319 319 320 319 319 319 319 319 319 318 318 317 317 316 315
328 326 327 328 328 328 328 328 327 327 327 325 324 324 323 323 321 320 318 318 320 321 321 320 320 319 318 318 317 318 319 320 321 322 322 322 323 323 323 322 322 322 321 321 321 320 320 320 320 320 320 319 319 319 319 320 320 320 319 319 319 319 318
327 326 327 328 328 328 327 327 326 326 325 324 323 322 322 322 320 319 318 318 319 319 320 319 320 319 318 318 319 319 320 319 319 320 321 321 322 322 322 322 322 322 321 321 320 320 320 320 321 321 320 320 320 320 320 320 320 320 320 320 320 320 319
326 326 326 327 328 327 326 325 324 324 323 322 322 321 321 321 320 319 318 318 318 318 319 319 319 320 320 320 319 319 319 319 319 320 320 320 321 321 321 321 321 320 320 320 320 319 319 319 320 320 320 320 320 320 320 320 320 320 320 320 320 320 320
325 325 325 326 326 325 324 323 323 322 322 321 321 321 321 320 320 319 318 318 317 318 317 318 318 319 320 320 320 320 320 320 319 319 320 320 321 321 320 320 320 319 318 318 318 318 317 317 317 318 319 319 320 319 319 319 318 319 319 319 319 319 319
324 325 325 325 325 324 323 322 322 322 321 321 321 321 320 320 318 318 318 317 317 317 316 317 317 318 318 319 320 320 320 319 320 320 320 320 321 321 321 320 320 320 320 319 318 318 318 317 317 317 318 318 318 318 318 317 318 318 318 318 318 318 318
323 324 324 324 324 324 323 322 322 322 321 321 321 320 319 319 318 317 317 317 317 316 316 316 316 316 317 316 317 318 318 318 319 320 320 321 321 321 321 320 320 321 321 320 321 321 321 320 320 321 321 321 320 320 319 319 318 318 318 318 319 319 318
323 323 323 323 323 322 322 322 321 321 320 320 319 318 317 316 316 315 315 316 316 316 315 315 315 315 315 314 314 314 315 317 318 320 320 320 320 321 321 321 321 321 320 321 321 321 321 321 321 321 321 322 321 321 320 319 319 318 318 318 319 319 318
321 320 320 321 321 320 320 319 317 318 318 317 316 316 315 314 314 313 313 314 315 315 315 315 315 315 315 315 314 313 313 314 315 318 319 319 319 319 319 319 319 320 320 321 322 322 321 321 321 321 321 321 321 321 320 320 320 320 320 320 320 320 319
316 316 316 317 317 317 317 316 315 315 315 314 314 313 313 313 313 313 313 313 313 314 314 314 315 316 317 317 315 314 314 313 312 315 318 319 318 318 318 318 318 319 320 321 321 320 319 319 319 320 320 321 321 320 321 320 320 320 320 319 319 319 319
312 313 313 313 314 315 315 315 314 314 315 315 314 313 312 312 311 312 312 311 312 312 311 311 313 315 316 316 316 315 315 313 314 316 317 317 317 317 318 318 318 319 319 319 318 317 317 316 317 317 317 317 317 317 318 318 319 318 318 318 318 317 318
311 311 311 311 312 313 314 314 315 315 315 315 314 313 313 313 311 310 309 308 309 309 309 308 309 311 312 313 313 314 314 314 314 315 315 314 314 315 315 316 316 316 316 316 316 315 315 314 314 313 313 312 312 312 312 312 312 312 312 312 312 311 311
310 309 310 310 310 311 312 313 314 314 314 314 313 313 313 313 311 309 308 308 308 307 307 307 307 307 308 309 310 311 312 312 311 310 310 310 311 311 311 311 312 311 312 312 312 311 311 310 310 310 309 308 307 306 305 304 304 303 303 303 303 303 303
308 308 309 310 310 311 311 312 312 313 313 312 312 311 310 310 309 307 306 306 305 304 303 303 302 303 304 305 306 307 308 308 308 308 308 307 307 308 309 309 308 308 309 309 309 309 309 309 308 307 305 304 302 300 299 299 299 299 299 300 299 300 300
305 306 307 308 308 308 309 309 310 311 311 311 310 309 308 307 306 304 303 303 302 301 300 299 299 299 299 300 300 301 302 302 301 303 304 304 304 305 307 307 307 307 308 308 307 307 307 306 304 302 300 298 297 297 298 298 298 299 299 300 301 302 304
305 305 305 306 306 306 306 306 306 306 307 307 307 306 306 305 305 304 303 302 302 301 301 300 299 299 299 299 298 299 299 298 298 298 299 300 301 301 302 303 303 303 303 302 302 301 300 300 299 298 297 297 297 298 299 299 300 300 300 302 304 307 309
304 304 304 305 305 306 306 305 305 305 305 306 306 306 305 305 305 305 303 302 301 301 301 301 300 299 299 299 299 299 299 299 299 299 298 299 300 300 299 299 299 299 298 298 298 299 301 301 301 301 301 301 301 302 302 301 301 301 302 304 307 308 309
Wind_Speed
26 24 24 23 22 20 19 20 19 18 17 16 15 16 16 17 17 14 12 14 15 15 14 13 14 14 13 14 13 13 14 16 17 18 18 18 16 11 9 7 9 17 19 12 14 13 6 3 5 6 8 9 9 8 8 9 10 10 10 11 12 12 11
24 22 22 22 21 20 20 20 20 19 18 16 16 17 17 17 16 14 13 13 14 15 14 14 15 14 13 14 14 13 14 15 16 17 17 17 16 14 12 14 16 17 14 12 17 17 10 6 4 3 7 9 8 8 8 9 10 11 12 13 13 13 12
22 20 21 20 21 21 20 21 21 19 18 17 17 18 17 16 15 15 14 13 13 14 13 14 16 14 14 16 15 13 14 15 16 17 18 16 15 14 14 17 18 16 14 11 14 16 11 8 6 6 9 9 7 8 9 10 11 11 13 16 15 13 11
24 22 21 20 21 21 21 23 21 18 19 20 18 18 17 16 16 16 15 13 13 14 13 14 17 15 14 16 15 13 14 15 16 17 17 16 16 15 13 15 17 18 15 12 16 19 14 9 8 7 9 11 10 11 12 12 11 13 15 17 15 13 10
27 25 23 22 21 22 23 23 20 19 22 21 19 19 18 17 17 16 16 15 13 12 13 14 16 16 14 14 15 14 13 13 14 17 17 16 16 16 13 13 15 16 15 15 20 21 17 18 15 9 10 13 9 10 15 14 13 14 16 16 15 13 11
28 26 25 24 22 23 23 21 21 23 24 22 20 19 19 18 17 17 16 16 14 12 12 12 14 15 15 14 14 15 14 13 13 15 16 16 16 15 15 14 14 13 13 17 20 18 20 24 20 12 13 14 10 10 15 16 15 14 15 16 15 13 11
26 25 24 24 23 23 22 20 24 26 24 22 21 19 19 19 17 16 15 14 15 12 11 12 13 15 15 14 13 14 15 14 13 13 14 15 15 15 15 14 14 13 14 18 18 17 22 26 22 17 15 11 10 12 13 15 16 14 14 16 14 10 10
23 22 22 23 23 22 20 20 24 24 21 22 21 18 18 17 16 15 14 14 15 13 12 12 12 13 14 13 13 14 15 14 13 13 14 15 14 14 15 15 14 14 14 16 17 18 24 26 25 24 20 11 7 8 9 12 15 15 18 17 11 10 10
20 20 20 21 21 21 20 20 21 21 21 21 21 19 18 17 17 16 15 15 15 14 13 12 12 13 13 12 14 15 14 13 12 11 13 15 14 13 14 14 14 15 14 14 16 20 23 24 24 26 24 18 10 6 5 7 9 13 20 20 13 10 10
18 19 20 20 19 20 20 19 20 21 21 21 22 21 19 18 17 16 16 15 14 14 14 13 12 12 11 11 13 15 14 14 12 10 13 15 14 13 14 14 14 15 15 13 14 18 20 20 22 25 25 23 18 10 4 4 6 11 18 21 17 13 11
18 18 21 20 18 20 20 19 21 21 21 22 22 21 19 18 16 15 16 14 13 14 14 13 13 12 11 11 13 13 13 14 13 11 12 14 14 14 14 14 13 15 16 14 13 15 17 18 22 24 23 23 20 14 10 6 5 13 20 18 15 14 13
18 19 20 18 18 21 20 19 20 21 21 22 22 20 18 17 17 18 16 14 13 14 14 13 13 12 11 12 13 12 12 13 13 12 12 12 13 14 14 13 13 14 15 15 14 15 17 18 21 23 22 20 18 17 20 14 5 13 23 20 14 13 12
19 20 18 17 20 23 21 18 20 22 22 22 21 20 18 17 18 17 16 15 14 13 13 14 13 12 12 13 13 13 13 12 12 12 11 12 13 13 13 13 12 13 14 15 16 16 16 18 21 22 19 17 18 20 23 19 10 11 20 21 17 15 12
20 20 17 17 21 23 21 19 20 22 22 22 20 19 18 17 16 14 14 16 13 12 14 15 13 12 13 13 12 13 15 13 12 12 11 11 13 12 13 13 12 13 15 15 16 15 15 17 18 17 14 14 21 25 22 20 16 13 15 18 19 18 16
21 18 16 18 21 22 22 21 21 22 22 21 19 18 18 17 14 11 13 14 12 12 13 14 13 12 11 12 11 11 13 13 13 14 12 11 14 14 14 14 13 15 15 14 15 15 15 14 13 12 9 10 20 25 21 21 19 16 16 19 21 20 18
21 18 17 20 20 20 22 22 21 22 21 20 19 18 17 16 13 12 13 13 12 12 12 12 13 11 10 11 9 7 12 15 15 14 12 13 15 15 15 15 15 15 13 13 14 14 12 10 10 11 10 11 14 17 20 21 20 18 19 20 22 23 21
22 20 20 21 21 21 22 22 21 20 20 20 18 17 17 14 13 14 14 13 13 12 12 12 11 11 12 10 7 10 15 17 15 12 12 14 15 15 16 16 16 14 12 13 12 9 6 4 6 11 12 11 12 14 20 21 19 20 21 21 23 24 22
24 22 22 22 21 22 23 22 21 18 19 20 17 17 17 14 14 14 14 13 12 12 13 11 10 12 13 9 7 12 16 15 13 13 12 13 14 15 16 16 16 13 12 13 9 5 3 3 4 9 12 11 12 13 16 16 16 18 20 21 23 23 21
26 24 24 24 23 23 23 22 21 19 19 19 17 18 18 15 14 13 13 13 11 11 14 12 10 12 12 8 6 10 11 9 11 14 14 14 15 15 15 16 15 12 11 10 7 4 5 7 9 8 7 8 10 11 12 11 13 17 18 19 20 21 23
29 24 24 25 26 25 22 21 21 19 19 18 17 19 18 15 15 13 13 14 12 13 15 12 11 14 12 7 7 9 7 5 10 16 16 15 16 15 14 14 13 11 10 8 7 7 8 9 11 11 8 8 10 9 9 9 11 15 17 18 17 18 22
30 25 23 25 28 26 23 21 20 20 19 18 18 19 18 16 16 14 13 15 14 14 14 11 12 15 13 9 9 8 7 7 13 18 17 15 16 15 14 13 11 10 9 8 7 7 8 8 10 12 11 10 10 9 7 6 6 9 13 16 13 13 16
26 24 25 27 28 26 24 21 20 20 20 18 17 18 16 14 15 15 15 17 16 15 14 13 14 15 13 11 10 8 8 10 13 16 17 16 16 16 16 13 11 10 9 8 7 6 6 6 7 10 10 8 8 9 7 6 5 4 6 9 9 10 13
23 22 24 28 28 24 22 21 19 20 20 18 17 18 16 14 16 18 18 19 18 17 16 15 15 14 13 12 11 10 10 10 11 14 16 16 15 17 17 14 12 11 10 9 8 6 5 5 4 7 8 7 6 6 6 6 7 7 5 3 2 3 7
22 22 22 25 26 24 22 22 21 20 19 19 19 19 18 18 19 21 21 20 20 19 18 17 16 15 14 13 12 11 11 10 10 12 12 13 14 16 15 12 11 9 8 8 8 7 6 5 4 4 5 6 5 4 3 3 3 4 4 4 4 2 2
23 23 20 18 20 24 25 25 24 22 21 22 22 21 21 21 22 22 22 22 21 21 19 17 16 16 15 13 12 12 12 11 11 12 12 12 12 14 13 12 11 9 8 7 6 6 5 4 3 3 3 3 3 3 2 2 2 2 3 3 4 4 4
21 21 19 16 19 25 27 26 25 24 24 24 24 24 24 24 23 22 22 22 21 21 19 16 14 15 15 15 14 14 15 14 14 14 14 13 14 15 15 15 15 13 10 9 8 6 5 3 2 2 2 2 3 3 4 5 5 5 6 7 8 9 9
17 19 19 19 23 27 28 28 28 27 27 27 26 27 26 25 24 22 21 21 20 19 17 14 12 12 12 13 13 14 15 16 16 16 15 15 16 16 14 13 13 11 8 7 8 7 5 4 4 3 3 3 4 5 6 6 7 7 8 9 10 12 12
20 22 22 24 26 28 29 30 29 28 28 28 28 27 25 24 23 21 19 18 17 17 16 13 11 10 10 10 10 10 11 13 14 15 14 14 15 15 13 10 9 7 5 5 5 5 2 2 2 4 5 5 6 6 6 7 7 8 9 10 11 13 14
23 24 24 26 28 29 29 29 29 28 29 28 27 26 24 22 22 20 19 17 16 16 15 12 11 11 10 9 8 7 7 9 10 10 11 11 11 11 10 8 5 5 4 4 4 3 2 2 2 3 4 5 6 6 6 6 7 8 9 10 11 12 13
24 24 25 27 29 29 29 28 27 28 30 29 26 25 24 22 21 20 18 16 15 15 14 12 11 11 11 10 10 10 9 8 6 5 8 10 9 8 9 7 4 5 6 4 1 1 2 3 3 4 4 5 5 6 6 7 7 8 8 8 9 9 10
24 25 25 26 28 29 28 26 24 23 26 27 24 22 22 21 20 18 17 15 14 13 13 11 10 10 10 9 10 12 12 12 12 11 11 12 11 10 10 9 7 6 5 3 1 2 3 4 4 4 5 6 7 7 7 8 9 10 10 9 9 10 11
25 26 26 25 26 27 26 25 22 19 20 20 19 18 17 16 16 16 15 14 13 12 12 11 10 9 9 9 10 12 14 16 18 17 15 14 13 12 11 9 8 6 4 3 1 3 4 5 6 7 8 9 10 11 11 12 13 14 15 15 15 16 16
24 24 25 25 25 24 24 23 21 20 18 17 16 14 13 13 15 15 14 14 13 13 12 11 11 9 8 8 9 9 10 13 15 15 14 13 12 10 8 7 6 5 3 2 3 5 7 8 9 10 11 11 12 13 14 15 15 16 17 18 18 19 19
23 23 22 22 22 21 21 20 19 18 17 16 15 15 14 14 15 16 15 14 15 15 14 13 13 11 10 9 8 6 6 8 9 10 11 12 11 9 7 6 5 4 3 4 5 7 9 10 12 13 14 14 14 14 14 15 15 14 14 15 16 17 16
24 23 22 22 23 23 22 20 19 17 16 15 15 16 15 15 17 19 19 18 18 19 18 17 17 16 14 13 11 9 8 8 7 7 8 10 10 8 6 4 4 4 4 5 7 9 11 13 14 15 15 14 13 12 11 11 11 11 12 12 12 12 13
21 22 21 20 22 22 21 20 18 17 16 16 17 17 16 17 19 20 20 20 21 20 19 18 18 17 17 15 14 14 12 11 10 8 8 9 8 6 4 3 4 5 6 7 8 9 10 10 10 10 10 9 9 9 8 8 9 11 11 10 10 12 13
22 22 21 19 17 17 16 15 14 13 12 13 13 14 14 16 17 19 21 22 21 19 17 15 16 16 15 13 13 13 12 12 10 9 8 8 7 6 6 6 6 5 5 5 5 4 4 5 6 7 8 8 8 9 9 10 10 11 12 12 12 12 12
Wind_Direction
191 192 195 195 190 184 176 173 171 167 162 159 164 169 166 166 172 177 178 179 179 176 178 178 170 172 176 172 171 170 166 166 172 169 165 171 173 164 157 145 150 160 159 158 153 142 126 118 125 128 138 143 148 146 140 144 147 146 146 143 137 135 137
196 192 191 194 190 181 174 170 168 162 158 160 166 167 163 166 171 171 169 169 170 172 177 177 171 173 178 174 169 168 167 166 173 175 169 174 174 160 148 139 141 149 151 153 149 138 128 135 132 133 142 139 139 141 138 138 140 142 141 133 129 133 138
195 191 189 190 185 178 172 167 165 164 165 164 162 160 158 162 164 163 164 163 164 171 175 172 169 171 173 172 169 169 169 166 172 177 175 179 175 162 156 151 148 147 143 144 147 140 133 130 127 144 154 150 144 144 147 147 141 137 135 130 129 137 141
192 188 187 185 181 176 169 165 165 166 167 163 157 158 159 160 160 159 161 161 165 172 173 168 169 172 171 171 171 170 168 167 170 173 176 178 172 163 165 165 162 161 158 159 157 151 145 136 135 145 158 157 152 152 152 149 144 136 133 135 141 150 147
190 189 187 182 178 174 168 168 169 161 157 156 153 156 156 155 158 159 162 163 160 160 162 166 172 174 173 173 174 172 168 167 168 170 171 172 170 167 166 167 168 170 175 171 162 160 158 150 146 147 160 159 152 157 158 153 152 147 143 150 160 166 161
190 191 188 181 177 173 169 170 169 157 151 152 152 151 152 154 156 157 160 162 156 150 153 162 171 173 173 174 175 171 168 168 171 171 171 171 172 171 165 163 167 169 174 168 161 164 163 152 147 148 158 161 157 160 163 160 160 158 159 168 170 172 174
190 192 188 180 174 171 169 165 161 156 154 157 155 150 151 153 153 151 154 156 153 150 149 154 163 169 171 172 171 168 167 173 177 176 176 173 172 172 166 163 164 162 162 163 160 163 162 156 153 155 156 160 159 158 162 163 162 158 158 168 174 176 177
192 191 186 179 173 170 169 162 156 156 157 159 157 151 150 151 151 152 152 151 152 151 148 147 154 163 168 170 172 169 168 176 182 181 179 174 169 170 167 162 163 164 162 163 163 163 163 160 160 162 160 154 152 160 164 166 167 160 154 157 170 174 164
192 190 186 182 176 174 172 165 160 158 154 155 154 149 147 148 148 149 147 145 149 151 149 146 148 156 162 167 172 171 171 178 182 179 178 176 172 171 169 163 163 165 162 158 160 162 165 167 167 167 166 161 156 160 170 166 161 158 157 155 160 173 165
195 193 188 183 180 179 176 168 165 160 154 152 151 148 148 147 145 145 143 144 152 155 152 150 151 156 161 163 166 169 171 177 179 175 176 177 176 172 166 162 161 161 160 155 157 163 168 173 174 174 175 171 165 158 158 168 152 153 162 160 158 171 182
197 196 189 183 180 179 176 170 166 160 154 152 150 147 148 147 146 145 143 145 151 152 152 153 152 158 162 155 155 162 166 170 174 174 176 176 177 174 165 161 160 159 158 156 159 168 171 173 178 180 180 179 178 171 155 150 154 158 163 166 167 174 183
194 192 190 189 185 181 177 170 164 159 155 154 151 148 147 146 148 147 144 144 150 154 156 155 151 155 158 149 149 155 157 163 168 168 173 176 176 176 169 164 164 160 158 159 161 167 170 173 179 182 182 188 197 185 162 147 144 167 168 172 178 178 176
191 189 190 192 187 182 178 169 163 158 155 154 152 150 149 147 148 147 144 147 154 160 158 154 150 152 153 151 152 156 155 157 160 161 169 173 174 176 172 169 171 166 163 165 164 165 169 174 180 184 191 204 204 187 169 155 144 168 178 181 180 177 174
189 189 192 188 179 176 175 169 161 158 156 154 153 149 147 147 147 142 145 153 157 156 153 151 151 150 151 156 157 157 159 160 157 158 163 170 173 174 171 171 172 168 168 171 170 169 169 172 182 192 207 212 194 184 177 166 152 152 175 184 180 175 179
187 191 193 183 173 171 172 167 161 157 152 149 150 149 149 149 146 139 144 155 156 152 153 150 150 152 156 166 169 168 172 169 159 158 160 165 172 171 167 168 168 168 171 173 170 168 169 175 188 192 184 172 176 180 182 172 159 148 157 174 177 174 178
186 190 189 180 175 173 169 162 157 153 147 146 150 153 153 148 142 141 146 152 153 153 152 147 150 156 158 164 170 173 176 170 159 156 158 161 166 166 164 165 165 167 171 172 170 171 176 184 188 177 151 129 146 172 181 172 162 155 154 166 177 176 177
186 188 185 181 177 172 167 161 155 151 147 149 152 154 152 147 145 148 148 148 153 155 152 149 150 151 152 153 136 129 144 151 148 147 154 159 162 163 164 163 163 166 172 174 176 178 179 179 176 175 164 136 126 152 173 173 167 163 160 167 179 182 180
185 185 184 182 176 169 166 162 156 150 149 153 157 155 152 150 152 152 148 148 155 157 153 155 150 143 151 155 123 124 136 140 141 146 153 156 157 160 162 160 160 166 174 180 185 184 157 105 120 157 165 152 134 142 159 169 174 172 169 171 179 186 188
180 183 184 179 172 166 162 157 153 150 153 158 159 152 150 154 153 149 147 149 156 155 152 157 150 144 155 161 129 133 140 139 146 149 147 146 147 149 151 154 159 166 174 182 182 155 126 92 81 102 142 160 155 148 143 151 175 184 183 182 182 186 193
177 183 185 175 170 168 161 156 154 154 158 161 158 152 151 153 151 150 153 154 158 159 157 162 156 149 156 161 147 150 149 144 156 154 146 140 143 145 146 150 153 152 159 168 155 128 116 99 82 84 112 145 153 151 134 132 164 183 189 193 190 189 197
175 182 182 169 166 167 163 159 158 160 162 160 156 152 148 147 150 155 157 153 153 156 156 159 154 151 154 152 154 164 153 133 144 151 150 144 146 149 149 152 153 151 156 156 142 126 114 105 96 95 108 123 127 130 129 126 152 177 191 197 194 188 196
170 179 179 163 160 163 162 160 159 160 161 154 148 147 145 147 151 150 146 144 145 148 146 141 141 146 151 149 152 158 148 132 132 141 145 145 153 158 154 157 163 164 165 157 145 136 116 105 106 110 118 125 123 120 114 102 90 105 177 194 194 191 196
164 176 173 157 154 159 160 159 154 151 155 152 148 150 150 145 141 138 136 137 137 135 131 126 127 136 144 148 151 148 143 137 128 129 130 128 138 148 146 146 151 152 155 154 152 156 145 129 123 123 132 143 142 129 112 97 78 68 84 104 102 195 204
158 165 162 152 153 157 159 160 154 149 152 151 150 152 147 137 133 133 132 131 128 125 122 117 116 123 132 144 157 157 150 146 138 134 131 125 132 142 139 137 141 143 144 143 147 159 166 171 169 149 143 147 152 153 140 118 81 60 60 58 44 24 7
149 151 155 157 155 152 152 153 149 144 143 143 142 141 137 131 130 130 128 126 122 117 115 113 111 114 117 127 142 144 139 140 141 143 141 132 135 145 143 134 130 129 134 137 138 149 167 191 194 175 168 172 185 204 219 252 291 311 314 314 308 307 319
145 143 147 152 147 143 142 140 139 138 137 137 136 131 128 127 125 125 125 124 120 116 114 113 112 112 111 115 122 120 112 106 106 113 117 114 120 134 136 126 116 107 113 132 139 139 151 169 180 191 209 221 242 260 268 275 280 281 283 291 294 294 297
137 136 140 140 134 132 131 129 131 134 133 132 130 126 124 123 121 120 121 120 118 116 114 113 113 114 112 110 113 112 105 94 85 86 91 94 103 116 122 122 118 103 92 115 132 136 149 167 181 209 234 247 257 265 274 280 283 284 285 286 287 286 288
129 134 138 135 126 121 121 123 126 129 128 126 124 122 121 120 118 117 116 118 118 114 111 114 118 119 117 114 113 110 107 97 84 77 81 85 90 98 103 107 117 114 80 72 92 104 119 175 214 231 244 254 259 263 271 275 276 278 279 280 281 282 284
125 128 128 125 119 115 116 118 121 124 124 122 119 119 117 116 115 115 114 118 119 112 107 111 119 121 122 123 123 120 115 107 90 75 76 85 88 95 98 95 97 107 91 64 58 59 42 354 299 268 256 258 265 271 274 273 272 271 270 271 275 277 279
111 115 115 113 113 113 113 112 113 116 117 115 114 114 112 111 111 113 114 115 117 115 109 106 112 119 122 125 126 123 119 118 119 96 83 90 97 100 101 99 99 107 111 112 108 328 319 306 291 283 273 270 276 281 279 275 274 274 276 281 284 287 288
92 99 99 100 106 112 113 112 112 111 109 108 108 109 110 110 107 107 108 107 109 112 107 102 108 113 114 119 123 124 123 124 130 129 113 102 103 103 103 107 110 115 120 118 66 329 318 312 311 317 317 312 311 307 298 293 290 287 286 289 291 294 298
86 89 91 92 99 107 110 113 117 118 114 113 112 112 113 112 105 100 101 99 99 102 99 95 97 100 102 104 109 117 125 124 122 121 116 109 103 102 104 106 107 108 110 96 33 331 325 325 324 326 328 325 321 317 311 309 308 305 304 303 303 302 302
86 86 89 90 94 101 107 112 115 117 118 121 123 120 120 120 110 99 95 94 91 87 84 81 78 79 83 88 92 101 113 116 112 109 107 104 99 96 96 95 91 86 72 38 331 311 313 315 316 317 319 318 317 314 311 311 311 312 312 312 312 311 310
79 80 83 88 92 95 100 104 107 110 113 118 119 114 112 113 108 97 90 88 84 78 74 73 71 69 68 70 75 82 93 98 96 96 97 95 93 94 93 86 76 62 32 350 322 309 308 310 313 315 315 313 311 309 308 311 313 316 318 317 317 319 319
72 74 77 83 87 89 91 94 96 99 104 110 112 112 112 111 106 99 91 85 81 78 75 74 73 73 72 73 73 74 79 80 79 92 101 95 89 91 89 69 46 29 357 326 312 306 306 309 311 311 309 308 307 306 307 311 317 321 324 327 332 339 345
68 70 71 76 81 84 86 90 93 99 105 108 110 115 120 117 111 105 98 90 85 83 81 79 79 78 78 81 83 82 82 80 78 86 95 90 81 77 62 21 2 350 327 314 311 311 312 315 315 316 317 316 317 319 319 320 324 328 335 345 353 357 2
67 69 72 77 82 82 82 86 92 98 105 110 115 122 124 121 117 113 108 101 93 89 86 83 80 76 72 73 79 83 84 83 81 79 80 77 65 45 26 8 352 339 329 329 340 354 1 359 354 350 347 342 340 338 335 333 331 335 345 353 353 355 5